Flag for U.S.A. Weather past 2 weeks in Black Mountain, North Carolina, U.S.A.

Now
48 °F

Overcast.


Feels Like: 44 °F
Forecast: 39 / 47 °F
Wind: 9 mph from Southeast

Location: Asheville Regional Airport

Current Time: Mar 3, 2015 at 2:24:29 PM

Latest Report: Mar 3, 2015 at 1:54 PM


Visibility: 10 mi

Pressure: 30.18 "Hg

Humidity: 71%

Dew point: 39 °F

Location of Black MountainLocation

Historic Weather in Black Mountain — Graph

°F

Black Mountain temperature yesterday

Maximum temperature yesterday: 53 °F (at 2:54 PM)
Minimum temperature yesterday: 36 °F (at 3:58 AM)
Average temperature yesterday: 44 °F

Past Weeks' High & Low Weather Summary

 TemperatureHumidityPressure
High58 °F (Feb 22, 3:54 PM)100% (Feb 22, 2:54 AM)30.68 "Hg (Feb 22, 2:54 AM)
Low3 °F (Feb 19, 6:54 AM)33% (Feb 20, 2:54 PM)29.68 "Hg (Feb 17, 4:04 AM)
Average30 °F71%30.16 "Hg
* Reported Feb 16 2:01 PM — Mar 3 1:01 PM, Black Mountain, Weather by CustomWeather, © 2015

Note: Actual official high and low records may vary slightly from our data, if they occured in-between our weather recording intervals... More about our weather records

Advertising

Black Mountain weather history for previous 24 hours

 ConditionsComfort  
Time TempWeatherWind HumidityBarometerVisibility
1:01 PM
Tue, Mar 3
46 °FOvercast.9 mph73%30.21 "Hg10 mi
12:01 PM46 °FMostly cloudy.9 mph71%30.24 "Hg10 mi
10:54 AM43 °FOvercast.9 mph74%30.29 "Hg10 mi
10:01 AM42 °FOvercast.8 mph73%30.28 "Hg10 mi
9:01 AM42 °FOvercast.7 mph71%30.28 "Hg10 mi
7:54 AM41 °FOvercast.8 mph74%30.29 "Hg10 mi
6:54 AM41 °FOvercast.5 mph76%30.28 "Hg10 mi
5:54 AM41 °FOvercast.6 mph80%30.26 "Hg10 mi
4:54 AM41 °FOvercast.8 mph86%30.25 "Hg10 mi
3:54 AM41 °FOvercast.3 mph86%30.25 "Hg10 mi
2:54 AM42 °FOvercast.3 mph79%30.26 "Hg10 mi
1:54 AM40 °FLight rain. Overcast.3 mph86%30.28 "Hg9 mi
12:54 AM40 °FLight rain. Mostly cloudy.3 mph83%30.29 "Hg10 mi
11:54 PM
Mon, Mar 2
40 °FOvercast.No wind83%30.30 "Hg10 mi
10:54 PM39 °FPassing clouds.No wind86%30.31 "Hg10 mi
9:54 PM39 °FPassing clouds.3 mph82%30.31 "Hg10 mi
8:54 PM39 °FClear.6 mph79%30.30 "Hg10 mi
7:54 PM41 °FClear.10 mph76%30.29 "Hg10 mi
6:54 PM44 °FClear.12 mph68%30.27 "Hg10 mi
5:54 PM47 °FSunny.15 mph66%30.25 "Hg10 mi
4:54 PM50 °FSunny.15 mph61%30.25 "Hg10 mi
3:54 PM53 °FSunny.17 mph56%30.24 "Hg10 mi
2:54 PM53 °FSunny.20 mph56%30.23 "Hg10 mi
Weather by CustomWeather, © 2015

See weather overviewHow to use our weather pages